Date String (YYYY-MM-DD hh:mm:ss) UTC,Instrument flags,Ambient pressure (hPa),Sample flow (lpm),Bypass flow (lpm),Sample temperature (°C),Ambient temperature (°C),ASC tube jacket temperature (°C),LED temperature (°C),Box temperature (°C),Sample RH (%),Span deviation,Mass concentration (μg/m³),Mass concentration (μg/m³),Mass concentration (μg/m³)
DateTimeUTC,F1_M11,P_M11,Q1_M11,Q2_M11,T1_M11,T2_M11,T3_M11,T4_M11,T5_M11,U1_M11,ZSPAN_M11,X0_M11,X2_M11,X1_M11
2021-08-29 09:00:00,,0833.1,5.00,0.00,29.7,28.6,00.0,38.8,31.5,26.9,0002.2,0019.55,0012.42,0011.64
2021-08-29 09:01:00,,0833.0,5.00,0.00,29.7,28.7,00.0,38.8,31.5,26.9,0002.2,0019.40,0012.39,0011.61
2021-08-29 09:02:00,,0833.1,5.00,0.00,29.8,28.7,00.0,38.8,31.6,26.8,0002.2,0019.06,0012.38,0011.62
2021-08-29 09:03:00,,0833.1,5.01,0.00,29.8,28.8,00.0,38.8,31.6,26.8,0002.1,0018.66,0012.39,0011.61
2021-08-29 09:04:00,,0833.0,4.99,0.00,29.8,28.9,00.0,38.9,31.6,26.8,0002.3,0018.46,0012.33,0011.58
2021-08-29 09:05:00,,0833.1,4.99,0.00,29.8,28.9,00.0,38.9,31.7,26.8,0002.3,0018.13,0012.29,0011.56
2021-08-29 09:06:00,,0833.1,5.00,0.00,29.9,29.0,00.0,38.9,31.7,26.7,0002.2,0018.00,0012.30,0011.56
2021-08-29 09:07:00,,0833.0,5.01,0.00,29.9,29.0,00.0,38.9,31.7,26.5,0002.2,0018.08,0012.31,0011.56
2021-08-29 09:08:00,,0833.0,4.99,0.00,29.9,29.1,00.0,38.9,31.7,26.5,0002.2,0017.32,0012.28,0011.57
2021-08-29 09:09:00,,0832.9,5.01,0.00,29.9,29.1,00.0,39.0,31.8,26.5,0001.9,0016.90,0012.27,0011.57
2021-08-29 09:10:00,,0832.9,5.01,0.00,30.0,29.2,00.0,39.0,31.8,26.5,0001.7,0017.00,0012.29,0011.56
2021-08-29 09:11:00,,0832.9,5.00,0.00,30.0,29.1,00.0,39.0,31.8,26.5,0001.6,0016.56,0012.26,0011.56
2021-08-29 09:12:00,,0832.9,4.99,0.00,29.9,27.4,00.0,39.0,31.4,26.6,0001.7,0016.48,0012.27,0011.56
2021-08-29 09:13:00,,0832.8,5.00,0.00,29.8,26.3,00.0,39.0,31.1,26.9,0001.6,0016.65,0012.25,0011.51
2021-08-29 09:14:00,,0832.9,4.98,0.00,29.7,26.5,00.0,38.9,31.1,27.0,0001.9,0016.41,0012.21,0011.51
2021-08-29 09:15:00,,0832.8,5.01,0.00,29.6,26.9,00.0,38.9,31.1,27.2,0001.8,0016.73,0012.28,0011.53
2021-08-29 09:16:00,,0832.8,4.99,0.00,29.6,27.3,00.0,38.9,31.2,27.2,0001.7,0016.93,0012.31,0011.53
2021-08-29 09:17:00,,0832.8,5.01,0.00,29.6,27.6,00.0,38.8,31.3,27.1,0001.9,0016.97,0012.28,0011.51
2021-08-29 09:18:00,,0832.8,4.99,0.00,29.6,27.9,00.0,38.8,31.3,27.1,0002.2,0016.90,0012.24,0011.48
2021-08-29 09:19:00,,0832.8,5.01,0.00,29.7,28.1,00.0,38.8,31.4,27.1,0002.4,0017.04,0012.27,0011.47
2021-08-29 09:20:00,,0832.8,5.00,0.00,29.7,28.3,00.0,38.8,31.4,27.1,0002.6,0017.03,0012.28,0011.46
2021-08-29 09:21:00,,0832.8,4.99,0.00,29.7,28.4,00.0,38.8,31.4,27.1,0002.6,0017.29,0012.26,0011.43
2021-08-29 09:22:00,,0832.8,5.00,0.00,29.7,28.5,00.0,38.8,31.5,27.1,0002.6,0017.39,0012.26,0011.40
2021-08-29 09:23:00,,0832.8,5.00,0.00,29.7,28.6,00.0,38.8,31.6,27.1,0002.4,0017.35,0012.27,0011.39
2021-08-29 09:24:00,,0832.8,5.01,0.00,29.8,28.7,00.0,38.8,31.6,26.9,0002.1,0017.16,0012.27,0011.40
2021-08-29 09:25:00,,0832.8,4.99,0.00,29.8,28.8,00.0,38.9,31.6,26.8,0002.0,0017.85,0012.29,0011.40
2021-08-29 09:26:00,,0832.8,5.01,0.00,29.8,28.9,00.0,38.9,31.7,26.7,0002.2,0018.20,0012.24,0011.37
2021-08-29 09:27:00,,0832.8,4.98,0.00,29.9,28.9,00.0,38.9,31.7,26.6,0002.2,0018.49,0012.20,0011.36
2021-08-29 09:28:00,,0832.8,5.00,0.00,29.9,29.0,00.0,38.9,31.7,26.6,0002.2,0018.39,0012.18,0011.36
2021-08-29 09:29:00,,0832.8,5.01,0.00,29.9,29.1,00.0,38.9,31.7,26.6,0002.0,0018.46,0012.18,0011.38
2021-08-29 09:30:00,,0832.8,5.00,0.00,29.9,29.1,00.0,38.9,31.7,26.5,0001.8,0018.33,0012.14,0011.38
2021-08-29 09:31:00,,0832.8,4.99,0.00,29.9,29.1,00.0,39.0,31.8,26.4,0001.9,0018.34,0012.15,0011.38
2021-08-29 09:32:00,,0832.8,5.01,0.00,30.0,29.2,00.0,39.0,31.8,26.4,0001.7,0017.99,0012.15,0011.40
2021-08-29 09:33:00,,0832.9,5.00,0.00,30.0,29.2,00.0,39.0,31.8,26.4,0001.6,0017.95,0012.14,0011.42
2021-08-29 09:34:00,,0832.9,5.00,0.00,30.0,29.0,00.0,39.0,31.8,26.3,0002.0,0018.06,0012.12,0011.43
2021-08-29 09:35:00,,0832.9,5.00,0.00,29.9,27.3,00.0,39.0,31.3,26.4,0002.2,0018.09,0012.10,0011.42
2021-08-29 09:36:00,,0832.8,4.99,0.00,29.8,26.3,00.0,39.0,31.1,26.7,0002.1,0017.37,0012.07,0011.42
2021-08-29 09:37:00,,0832.8,5.01,0.00,29.7,26.5,00.0,39.0,31.2,26.8,0002.0,0017.07,0012.06,0011.43
2021-08-29 09:38:00,,0832.8,5.00,0.00,29.6,26.9,00.0,38.9,31.2,26.9,0002.0,0017.20,0012.07,0011.43
2021-08-29 09:39:00,,0832.8,4.99,0.00,29.6,27.3,00.0,38.9,31.2,27.0,0002.0,0017.56,0012.11,0011.41
2021-08-29 09:40:00,,0832.8,5.00,0.00,29.6,27.7,00.0,38.9,31.3,27.0,0002.1,0017.84,0012.19,0011.39
2021-08-29 09:41:00,,0832.8,4.99,0.00,29.6,27.9,00.0,38.8,31.3,27.1,0002.1,0018.30,0012.20,0011.37
2021-08-29 09:42:00,,0832.8,5.01,0.00,29.6,28.1,00.0,38.8,31.4,27.1,0002.1,0018.74,0012.20,0011.35
2021-08-29 09:43:00,,0832.8,5.02,0.00,29.7,28.3,00.0,38.8,31.4,27.0,0002.0,0018.98,0012.22,0011.34
2021-08-29 09:44:00,,0832.8,4.99,0.00,29.7,28.5,00.0,38.8,31.5,27.0,0002.0,0019.18,0012.22,0011.32
2021-08-29 09:45:00,,0832.8,5.00,0.00,29.7,28.6,00.0,38.8,31.5,26.9,0002.0,0019.28,0012.23,0011.30
2021-08-29 09:46:00,,0832.7,5.01,0.00,29.8,28.7,00.0,38.8,31.5,26.9,0002.2,0019.33,0012.25,0011.29
2021-08-29 09:47:00,,0832.7,5.00,0.00,29.8,28.8,00.0,38.9,31.6,26.7,0002.2,0019.63,0012.26,0011.28
2021-08-29 09:48:00,,0832.7,5.00,0.00,29.8,28.8,00.0,38.9,31.6,26.6,0002.2,0019.22,0012.26,0011.27
2021-08-29 09:49:00,,0832.8,5.00,0.00,29.8,28.9,00.0,38.9,31.7,26.6,0002.0,0018.61,0012.24,0011.28
2021-08-29 09:50:00,,0832.8,4.99,0.00,29.9,29.0,00.0,38.9,31.7,26.5,0001.8,0019.07,0012.24,0011.30
2021-08-29 09:51:00,,0832.7,5.00,0.00,29.9,29.0,00.0,38.9,31.7,26.6,0001.5,0019.58,0012.17,0011.29
2021-08-29 09:52:00,,0832.7,5.00,0.00,29.9,29.1,00.0,38.9,31.7,26.6,0001.6,0019.67,0012.13,0011.29
2021-08-29 09:53:00,,0832.7,5.00,0.00,30.0,29.1,00.0,39.0,31.8,26.5,0001.7,0019.49,0012.14,0011.31
2021-08-29 09:54:00,,0832.7,5.00,0.00,30.0,29.2,00.0,39.0,31.8,26.4,0001.9,0019.38,0012.14,0011.32
2021-08-29 09:55:00,,0832.7,4.99,0.00,30.0,29.2,00.0,39.0,31.9,26.3,0001.9,0019.50,0012.17,0011.33
2021-08-29 09:56:00,,0832.7,5.01,0.00,30.0,28.9,00.0,39.0,31.8,26.2,0002.0,0019.34,0012.17,0011.36
2021-08-29 09:57:00,,0832.7,5.00,0.00,29.9,27.0,00.0,39.0,31.3,26.4,0001.9,0019.14,0012.14,0011.37
2021-08-29 09:58:00,,0832.8,5.00,0.00,29.8,26.2,00.0,39.0,31.1,26.6,0001.7,0018.93,0012.17,0011.38
2021-08-29 09:59:00,,0832.7,5.00,0.00,29.7,26.5,00.0,38.9,31.1,26.7,0001.6,0019.00,0012.17,0011.37
